Temperature
23 22 22 22 22 23 24 25 26 25 26 25 25 25 24 23 22 20 19 19 19 18 18 18 18 18 18 18 18 18 18 18 18 18 18 17 17 17 17 17 17 17 17 17 17 17 17 18 18
23 22 22 23 23 23 24 25 25 25 26 25 25 24 24 22 21 20 19 19 19 18 18 18 18 18 17 17 17 17 17 18 17 17 17 17 17 17 17 17 17 17 17 17 17 17 17 17 17
23 22 23 24 24 24 24 25 25 26 26 26 25 24 23 22 21 20 19 19 19 18 18 18 18 17 17 17 17 17 17 17 17 17 17 17 17 17 17 17 17 17 17 17 17 17 17 17 17
22 23 25 25 25 25 26 26 26 26 26 25 25 23 22 21 20 20 19 19 19 18 18 18 18 18 17 17 17 17 17 17 17 17 17 17 17 17 17 17 17 17 17 17 17 17 17 17 17
23 24 25 25 25 26 26 27 26 26 26 25 24 23 21 20 20 20 19 19 19 18 18 18 18 18 17 17 17 17 17 17 17 17 17 17 17 17 17 17 17 17 17 17 17 17 17 17 17
24 25 24 24 25 26 26 26 26 26 25 25 24 23 21 20 20 20 20 19 19 18 18 18 18 18 17 17 17 17 17 17 17 17 17 17 17 17 17 17 17 17 17 17 17 17 17 17 17
25 25 25 25 24 25 26 26 26 25 25 25 24 23 21 20 20 20 20 19 19 19 18 18 18 18 18 17 17 17 17 17 17 17 17 17 17 17 17 17 17 17 17 17 17 17 17 17 16
25 25 26 25 25 25 26 26 26 25 25 25 24 23 22 21 20 20 20 19 19 19 18 18 18 18 17 17 17 17 17 17 17 17 16 16 16 16 16 16 16 17 17 17 16 16 16 16 16
25 25 24 25 25 25 26 26 25 25 24 24 24 23 22 21 20 20 20 19 19 19 19 18 18 18 17 17 17 17 17 17 17 16 16 16 16 16 16 16 16 16 16 16 16 16 16 16 16
26 24 25 26 26 26 26 26 25 25 24 24 23 22 21 21 21 20 20 20 20 19 19 19 18 18 17 17 17 17 17 17 16 16 16 16 16 16 16 16 16 16 16 16 16 16 16 16 16
27 25 26 27 26 26 26 26 25 25 24 24 23 22 22 21 21 21 21 20 20 19 19 19 18 18 18 17 17 17 17 17 16 16 16 16 16 16 16 16 16 16 16 16 16 16 16 16 16
27 27 27 26 26 26 26 25 25 24 24 24 23 22 22 21 21 21 21 20 20 19 19 19 18 18 18 17 17 17 17 17 17 16 16 16 16 16 16 16 16 16 16 16 16 16 16 16 16
26 26 26 26 25 25 25 25 24 24 24 23 23 22 22 22 21 21 21 20 20 19 19 19 18 18 18 17 17 17 17 17 17 16 16 16 16 16 16 16 16 16 16 16 16 16 15 15 15
26 26 26 26 26 25 25 24 24 24 24 23 23 22 22 22 21 21 21 20 20 19 19 19 18 18 18 18 17 17 17 17 17 17 16 16 16 16 16 16 16 16 16 16 16 15 15 15 15
26 26 26 26 26 25 25 24 24 24 24 23 23 23 22 22 22 21 21 20 20 20 19 19 18 18 18 18 17 17 17 17 17 17 17 16 16 16 16 16 16 16 16 15 15 15 15 15 15
26 25 24 25 26 26 24 23 24 24 24 24 23 23 22 22 22 21 21 20 20 20 19 19 18 18 18 18 17 17 17 17 17 17 17 16 16 16 16 16 16 16 15 15 15 15 15 15 15
25 25 25 25 26 26 24 23 24 24 24 24 23 23 22 22 21 21 21 20 20 19 19 19 18 18 18 17 17 17 17 17 16 16 16 16 16 16 16 16 16 15 15 15 15 15 15 15 15
25 26 26 25 26 25 24 24 24 24 24 24 23 23 23 22 21 21 20 20 20 19 19 19 18 18 17 17 17 17 17 17 16 16 16 16 16 16 16 16 16 15 15 15 15 15 15 15 15
26 26 25 26 26 25 24 24 24 24 24 24 23 23 23 22 21 21 20 20 19 19 19 18 18 18 17 17 17 17 17 16 16 16 16 16 16 16 16 16 15 15 15 15 15 15 15 14 15
26 25 25 26 26 25 24 24 25 24 24 24 23 23 23 22 21 21 20 19 19 19 18 18 18 17 17 17 17 17 16 16 16 16 16 16 16 16 16 16 15 15 15 15 15 15 15 14 14
25 25 25 25 25 25 24 23 24 24 24 23 23 23 22 22 21 20 20 19 19 18 18 18 18 17 17 17 17 16 16 16 16 16 16 16 16 16 16 15 15 15 15 15 15 15 15 14 14
24 25 25 25 24 23 24 22 23 24 23 23 23 22 22 21 21 20 19 19 18 18 18 18 17 17 17 17 16 16 16 16 16 16 16 16 16 16 16 15 15 15 15 15 15 15 15 15 15
25 25 25 25 24 23 24 23 23 24 23 23 23 22 22 21 21 20 19 19 18 18 18 18 17 17 17 17 16 16 16 16 16 16 16 16 16 16 16 16 15 15 15 15 15 15 15 15 15
25 24 24 24 24 22 24 24 23 23 23 23 23 22 21 21 20 20 19 18 18 18 18 17 17 17 17 16 16 16 16 16 16 16 16 16 16 16 16 15 15 15 15 15 15 15 15 15 15
24 23 22 22 22 22 25 24 23 23 24 23 23 22 21 21 20 19 19 18 18 18 17 17 17 17 16 16 16 16 16 16 16 16 16 16 16 16 15 15 15 15 15 15 15 15 15 15 15
24 24 22 22 22 23 24 23 23 24 23 23 22 22 21 20 20 19 19 18 18 17 17 17 17 16 16 16 16 16 16 16 16 16 16 16 16 16 15 15 15 15 15 15 15 15 15 15 15
23 23 24 23 23 23 24 23 23 23 23 23 22 22 21 20 20 19 18 18 18 17 17 17 16 16 16 16 16 16 16 16 16 16 16 16 16 16 15 15 15 15 15 15 15 15 15 15 15
23 23 23 22 22 22 23 23 22 22 22 22 22 21 21 20 19 19 18 18 17 17 17 17 16 16 16 16 16 16 16 16 16 16 16 16 16 16 16 15 15 15 15 15 15 15 15 15 15
23 23 23 23 22 22 21 22 23 22 22 22 21 21 20 20 19 19 18 18 17 17 17 16 16 16 16 16 16 16 16 16 16 16 16 16 16 16 16 15 15 15 15 15 15 15 15 15 15
23 22 22 21 21 22 21 21 23 23 22 22 21 21 20 20 19 19 18 18 17 17 17 16 16 16 16 16 16 15 15 16 16 16 16 16 15 16 16 16 16 15 15 15 15 15 15 15 15
Wind_Speed
11 11 8 3 3 0 6 7 9 8 8 8 9 9 12 12 8 7 3 3 7 11 13 12 10 9 9 9 9 9 9 9 9 8 8 9 9 8 8 8 8 7 7 7 7 8 8 8 8
10 7 5 4 2 3 6 8 9 9 7 6 8 10 12 10 10 8 5 4 7 11 13 12 10 9 9 9 9 9 9 9 9 8 8 8 8 8 8 8 7 7 7 7 7 8 8 8 8
11 8 4 2 4 5 7 8 8 8 6 6 8 11 8 7 9 5 5 6 8 11 13 12 10 9 9 8 8 9 8 9 9 8 9 8 8 7 7 7 8 8 8 8 8 8 8 8 7
6 4 3 1 7 8 8 8 6 7 7 7 8 8 9 9 7 7 7 8 8 10 13 12 10 9 8 8 8 8 8 8 8 8 8 8 8 8 7 8 8 8 8 8 8 8 9 9 8
5 4 1 4 7 8 8 7 7 8 7 9 10 11 10 9 10 9 7 8 8 9 11 11 10 9 8 8 8 8 8 7 7 8 7 7 8 8 7 8 8 8 8 9 9 9 10 10 9
4 3 0 4 7 7 6 6 7 8 8 8 9 10 8 9 8 7 8 7 7 8 9 11 11 10 9 9 8 7 7 7 7 7 7 7 7 7 7 7 8 8 8 9 9 9 10 10 9
4 2 1 6 6 5 5 6 7 6 7 6 6 8 8 9 7 6 7 6 6 6 7 9 11 10 10 10 9 8 7 7 6 6 5 6 6 6 6 7 8 9 9 9 9 10 10 9 8
4 3 2 5 5 4 4 5 6 6 6 6 5 6 7 9 8 6 6 6 5 5 5 5 7 10 10 10 10 9 8 7 6 5 5 5 6 6 7 8 8 9 9 9 9 9 9 9 7
4 1 2 4 4 4 5 5 6 5 6 7 8 10 11 10 8 7 6 5 4 4 4 4 5 7 8 9 10 10 9 7 7 6 5 4 5 7 8 10 10 9 9 9 9 9 8 7 6
2 1 3 4 4 5 5 4 4 4 6 7 8 10 11 9 7 6 6 5 5 5 4 4 5 5 5 5 8 7 7 7 5 6 6 5 5 7 9 10 10 9 9 8 7 7 6 5 4
0 2 3 5 5 4 4 4 4 4 4 5 7 9 8 6 5 5 5 5 5 5 4 4 4 5 5 4 5 4 4 4 3 4 5 6 6 6 8 7 7 7 6 4 5 4 4 4 6
1 2 2 4 4 2 3 3 5 5 5 5 6 7 7 6 5 4 5 6 5 4 4 3 3 3 4 4 3 3 3 2 2 3 5 5 3 3 4 4 5 5 4 3 3 3 5 7 9
2 2 2 3 3 3 4 3 3 3 4 4 5 6 6 5 4 4 5 6 5 4 4 4 3 4 3 3 3 3 3 2 3 3 4 5 3 3 3 3 5 5 5 4 3 5 7 7 8
2 2 2 2 3 2 3 1 2 2 3 5 5 5 5 4 3 4 5 4 5 4 4 4 3 4 3 3 2 3 3 3 4 3 3 5 4 3 3 4 3 4 5 5 5 6 5 5 6
3 4 4 4 4 3 2 1 2 3 4 5 5 5 5 4 3 3 4 4 4 4 5 4 3 3 3 3 2 3 3 4 3 3 4 5 5 4 4 3 3 4 7 7 6 6 5 5 6
7 7 6 5 5 5 3 2 2 5 4 4 4 5 4 4 4 3 3 4 3 4 5 4 4 4 4 3 2 2 3 4 3 4 4 4 5 6 5 4 3 5 7 5 4 4 4 5 5
8 8 6 5 6 4 4 2 3 5 4 4 3 4 5 5 5 3 3 3 3 3 4 5 4 4 4 4 3 3 3 4 3 4 3 3 5 7 6 4 3 6 5 4 4 4 4 5 5
6 5 4 4 7 5 4 4 5 5 4 3 3 3 4 4 4 4 4 4 3 4 3 4 5 4 4 3 3 2 2 2 3 3 3 4 5 7 6 4 4 6 4 4 4 4 4 4 3
7 6 5 2 4 3 3 4 4 5 4 4 4 3 3 4 5 5 5 5 4 4 2 3 4 4 4 3 3 2 2 2 2 2 4 4 4 6 5 4 4 4 4 4 4 4 5 4 3
8 7 6 3 3 3 4 5 4 5 5 3 3 3 3 3 4 5 4 5 4 3 2 3 4 3 4 3 2 2 3 2 3 2 3 3 4 5 5 5 4 4 4 4 5 4 3 2 2
8 7 6 4 2 5 5 5 6 6 5 5 3 2 4 3 4 4 4 4 4 3 1 2 3 3 3 3 2 1 2 2 2 2 2 1 4 5 4 4 4 4 4 4 4 4 3 2 0
7 4 6 6 5 5 6 4 4 7 7 6 5 3 3 4 4 4 4 4 3 3 1 2 3 3 3 3 2 2 2 2 2 3 3 2 3 4 4 4 4 4 4 4 4 4 2 2 1
5 4 6 8 8 8 8 5 4 8 7 7 6 4 3 4 5 5 5 4 4 3 2 2 2 3 3 3 3 2 2 2 2 3 4 4 2 3 4 4 3 3 3 4 3 4 3 2 2
5 5 8 8 7 8 9 7 2 4 6 7 6 5 4 4 5 5 5 4 4 4 2 2 3 2 2 2 3 3 3 2 3 3 3 3 2 2 3 3 3 4 3 4 3 3 3 2 2
5 6 4 5 6 6 4 3 3 8 7 6 6 5 5 5 5 5 5 4 4 4 3 2 2 2 2 1 2 3 3 3 4 4 4 4 3 2 3 3 3 3 4 4 3 3 4 3 3
6 7 5 4 3 1 2 2 6 9 8 6 6 6 6 5 4 4 4 4 4 4 3 2 2 2 2 2 2 2 3 2 2 3 3 4 4 4 4 4 3 3 4 4 4 3 3 3 3
6 6 8 8 9 6 3 4 7 8 7 6 6 6 5 4 4 4 4 3 3 3 3 3 2 2 2 2 2 2 2 2 2 3 3 3 4 4 5 5 5 4 4 4 5 3 3 3 3
7 7 5 4 4 5 4 4 5 9 7 6 5 5 4 4 4 3 3 3 3 3 3 3 3 3 2 1 1 1 1 1 1 2 3 3 4 4 6 6 6 5 5 5 5 4 4 4 3
6 7 6 5 6 4 3 2 6 8 6 6 5 4 4 3 2 3 3 2 2 2 2 2 2 2 2 2 1 1 1 1 2 2 2 2 3 4 5 5 5 6 5 5 5 5 5 4 4
6 6 6 5 5 5 4 1 7 7 6 5 4 3 3 3 3 2 2 2 2 1 2 2 2 2 1 2 2 2 1 2 2 2 3 3 3 4 5 5 5 5 5 5 6 5 5 5 4
Wind_Direction
273 254 248 249 259 183 66 63 61 49 53 51 41 57 65 50 47 81 109 67 86 101 105 94 85 84 83 82 80 80 78 79 80 78 77 78 79 79 79 79 82 77 78 80 80 79 80 78 75
279 278 270 239 260 76 69 70 64 56 54 67 60 60 69 62 65 92 101 75 86 97 98 96 92 87 84 83 84 81 79 81 81 83 81 81 81 80 78 79 80 79 80 81 83 84 85 83 79
268 269 265 262 46 66 75 73 77 75 56 59 73 62 54 62 69 88 109 103 92 96 100 102 100 93 88 86 88 86 85 83 83 82 81 80 81 82 81 80 82 83 83 85 87 87 85 84 80
270 261 247 53 66 68 77 82 84 89 70 58 73 75 67 58 79 105 115 108 101 103 105 111 110 103 99 96 93 91 88 84 83 82 81 80 81 83 85 84 84 86 86 86 87 89 85 81 75
246 256 234 90 75 71 64 68 74 75 69 67 76 89 87 80 90 102 102 95 93 102 112 119 123 119 115 109 102 94 91 88 86 85 84 84 84 85 86 85 87 86 88 89 87 89 89 84 73
268 255 144 93 86 76 70 60 64 75 74 77 89 99 98 104 97 97 98 95 99 105 115 126 136 133 129 122 113 104 100 98 93 91 90 91 91 90 89 89 91 92 92 93 91 93 93 90 81
275 298 101 100 97 82 70 61 63 71 69 62 81 101 115 113 108 114 111 106 100 107 121 134 141 140 138 134 129 122 115 112 110 106 105 109 110 106 104 98 95 96 97 99 98 98 97 93 85
287 303 69 95 105 92 80 68 70 66 69 62 54 91 115 123 135 131 119 111 106 106 112 123 139 143 142 141 140 137 133 133 135 134 132 131 131 128 119 109 105 105 105 106 105 105 105 101 93
275 289 57 76 94 100 107 99 89 74 80 74 70 82 108 123 137 133 124 120 121 107 106 116 120 124 132 141 145 150 152 154 155 161 164 157 142 133 123 116 116 114 114 116 116 119 119 115 106
256 56 68 70 84 97 99 100 111 109 97 96 96 103 118 135 143 143 141 139 130 123 114 109 114 118 121 122 135 149 150 160 168 157 157 147 120 114 116 122 121 120 122 128 134 137 138 130 119
123 86 71 75 69 89 104 97 83 86 92 100 115 120 126 139 143 141 137 125 110 102 98 100 113 121 115 110 114 112 115 134 141 129 135 121 114 118 123 133 134 129 132 134 133 143 123 107 90
119 84 89 88 76 71 82 79 74 65 68 85 103 120 132 144 150 144 127 113 107 101 102 92 90 104 112 105 108 116 112 108 123 126 115 111 111 108 115 125 127 128 128 107 105 101 83 78 81
163 150 112 104 109 93 83 77 86 83 99 105 115 126 137 140 139 132 119 118 119 118 116 107 103 93 104 112 132 129 116 117 116 103 108 114 114 119 120 116 116 123 122 103 76 77 73 67 66
154 160 168 167 153 141 121 115 149 140 143 136 133 138 138 136 144 131 121 125 132 138 132 121 108 98 101 108 139 127 116 119 113 105 101 114 116 118 117 103 99 101 106 103 91 85 81 77 72
207 204 198 198 190 183 151 218 190 161 161 152 149 143 139 145 139 122 121 125 128 125 118 115 123 110 104 102 103 111 113 111 108 101 94 98 107 102 96 102 102 99 102 95 89 86 84 87 82
225 224 216 201 196 181 197 246 149 146 154 152 159 145 147 145 134 122 115 114 114 122 124 122 114 109 110 113 101 96 106 101 98 92 95 102 105 97 92 94 96 97 97 87 84 88 81 78 79
227 228 222 189 184 189 198 210 147 151 169 173 176 157 159 152 134 125 101 98 109 109 113 118 116 127 114 110 102 77 90 102 99 91 83 82 102 107 106 106 104 100 95 90 96 84 89 88 83
249 243 230 197 166 182 206 213 178 171 184 185 167 160 147 146 138 133 117 100 96 85 95 118 118 120 114 109 107 92 76 94 93 89 92 86 82 97 102 108 103 100 94 85 87 90 91 97 99
287 279 273 201 145 176 224 236 189 169 176 183 177 165 154 143 132 123 119 115 96 93 98 111 107 110 115 119 123 128 126 110 100 77 83 97 100 107 106 106 106 104 111 120 114 107 107 105 108
268 264 261 236 176 214 244 251 212 174 178 181 188 161 144 132 118 117 110 104 95 95 110 126 119 117 120 130 146 150 143 136 123 106 91 103 109 112 119 119 117 116 117 115 112 119 118 134 137
260 262 271 269 250 234 240 249 217 175 164 165 181 159 144 140 129 126 126 112 112 101 97 101 109 108 114 127 116 127 111 106 107 125 128 128 109 114 115 126 132 134 131 132 135 142 143 160 198
266 277 271 267 264 257 232 255 198 164 164 169 165 150 139 132 124 124 115 113 118 120 118 101 101 108 112 122 125 130 128 143 161 157 151 146 119 116 118 124 126 134 137 146 161 157 153 143 161
282 301 272 260 260 268 251 249 205 159 167 164 151 148 143 132 127 125 123 122 124 113 105 105 97 99 112 121 135 133 136 163 166 157 150 147 144 132 134 140 140 135 142 157 159 147 156 161 164
289 273 260 251 255 256 246 235 181 154 150 142 138 141 132 120 121 119 122 125 119 114 102 97 104 103 114 135 153 156 172 182 156 152 153 154 155 157 152 151 159 159 160 164 162 160 164 165 159
248 257 249 220 215 236 215 196 111 101 95 106 123 129 123 110 108 108 109 123 125 124 126 127 122 122 123 159 169 184 184 189 172 169 171 167 169 168 173 170 175 167 160 160 157 161 163 171 168
252 253 265 284 275 276 183 169 115 111 101 105 116 119 116 112 112 110 108 109 125 132 141 152 136 149 163 189 199 202 190 185 170 172 172 179 182 175 170 168 180 170 162 166 156 155 168 175 178
261 260 270 280 288 280 231 134 128 125 117 105 105 108 117 121 117 111 110 114 119 139 159 167 166 174 183 202 201 205 202 195 183 181 187 180 183 175 168 178 188 184 177 174 162 168 170 163 159
258 284 286 271 284 275 251 211 162 144 135 119 107 107 112 111 118 119 117 117 120 136 166 174 185 187 188 204 221 206 189 207 201 194 191 185 191 179 171 180 189 187 185 179 167 171 168 166 157
231 246 258 269 264 275 284 52 96 124 116 115 112 103 107 112 114 124 124 128 132 134 153 173 190 187 190 201 221 233 194 208 192 181 175 194 191 181 175 185 187 183 187 180 164 166 169 172 164
241 255 265 266 278 285 286 96 100 98 96 96 98 105 110 115 120 126 134 142 143 150 177 190 190 176 208 214 198 212 206 204 200 195 191 205 197 188 173 187 192 185 183 177 165 172 171 171 173
Height
1498 1498 1499 1501 1502 1503 1505 1500 1497 1498 1499 1501 1501 1501 1505 1509 1514 1524 1524 1523 1523 1521 1520 1520 1520 1520 1520 1521 1521 1521 1522 1522 1523 1523 1524 1524 1525 1525 1526 1526 1527 1527 1527 1528 1528 1529 1529 1529 1530
1499 1500 1501 1501 1503 1511 1510 1500 1501 1501 1502 1502 1503 1504 1508 1513 1516 1521 1522 1523 1523 1522 1521 1521 1521 1521 1521 1522 1522 1522 1523 1523 1524 1524 1525 1525 1526 1526 1527 1527 1527 1528 1528 1529 1529 1530 1530 1530 1531
1499 1500 1501 1498 1502 1509 1509 1501 1502 1503 1504 1503 1505 1508 1512 1516 1519 1521 1523 1524 1524 1523 1522 1522 1522 1522 1522 1523 1523 1524 1524 1524 1525 1525 1526 1526 1526 1527 1527 1528 1528 1529 1529 1530 1530 1530 1531 1531 1532
1502 1502 1500 1500 1506 1501 1501 1501 1501 1503 1505 1505 1506 1511 1517 1520 1521 1523 1524 1524 1524 1524 1523 1523 1523 1523 1523 1523 1524 1525 1525 1525 1526 1526 1527 1527 1527 1528 1528 1529 1529 1530 1530 1530 1531 1531 1532 1532 1533
1502 1501 1501 1505 1505 1501 1500 1501 1502 1504 1506 1507 1509 1515 1520 1522 1523 1524 1525 1525 1525 1525 1524 1524 1524 1524 1524 1524 1525 1525 1526 1526 1527 1527 1528 1528 1528 1529 1529 1530 1530 1530 1531 1531 1532 1532 1533 1533 1534
1503 1498 1506 1510 1507 1503 1503 1504 1504 1506 1508 1509 1511 1515 1521 1523 1524 1525 1526 1526 1526 1526 1525 1525 1525 1525 1525 1525 1526 1526 1527 1527 1528 1528 1529 1529 1529 1530 1530 1531 1531 1532 1532 1532 1533 1534 1534 1535 1535
1503 1501 1505 1506 1509 1507 1505 1506 1507 1508 1510 1511 1512 1516 1521 1524 1525 1526 1526 1526 1527 1527 1526 1526 1526 1526 1526 1526 1527 1527 1528 1528 1529 1529 1530 1530 1531 1531 1531 1532 1532 1533 1533 1534 1534 1535 1536 1536 1537
1502 1501 1502 1505 1509 1509 1507 1508 1509 1510 1512 1514 1514 1516 1521 1524 1525 1526 1527 1527 1527 1528 1527 1527 1527 1527 1527 1527 1528 1528 1529 1529 1530 1531 1531 1532 1532 1532 1533 1533 1533 1534 1535 1535 1536 1536 1537 1538 1538
1502 1505 1508 1506 1508 1508 1507 1509 1511 1512 1513 1515 1516 1518 1521 1524 1525 1526 1527 1528 1528 1529 1529 1529 1528 1529 1529 1529 1529 1529 1530 1531 1531 1532 1532 1533 1533 1534 1534 1534 1535 1535 1536 1537 1538 1538 1539 1540 1540
1502 1507 1506 1503 1504 1506 1508 1509 1511 1512 1514 1516 1518 1520 1522 1524 1525 1526 1527 1528 1529 1529 1530 1530 1530 1530 1530 1530 1530 1530 1531 1532 1532 1533 1534 1534 1535 1535 1536 1536 1537 1537 1538 1539 1539 1540 1541 1541 1541
1501 1504 1503 1503 1505 1507 1509 1510 1511 1513 1515 1517 1519 1521 1523 1524 1525 1526 1527 1528 1529 1530 1530 1530 1530 1530 1531 1531 1531 1532 1532 1533 1533 1534 1535 1536 1536 1536 1537 1537 1538 1539 1539 1540 1541 1542 1542 1543 1543
1502 1503 1504 1505 1508 1509 1510 1511 1513 1515 1517 1518 1519 1521 1523 1524 1526 1527 1527 1529 1529 1530 1530 1530 1531 1531 1531 1531 1532 1532 1533 1533 1534 1535 1536 1537 1537 1538 1538 1539 1539 1540 1541 1542 1542 1543 1544 1545 1545
1503 1505 1506 1507 1509 1510 1511 1513 1514 1516 1518 1519 1520 1521 1523 1524 1526 1527 1528 1528 1529 1530 1531 1531 1531 1531 1531 1531 1532 1533 1533 1534 1535 1536 1536 1537 1538 1538 1539 1540 1541 1541 1542 1543 1544 1545 1545 1546 1546
1504 1505 1506 1507 1509 1510 1512 1514 1515 1516 1518 1519 1520 1521 1523 1524 1526 1527 1527 1528 1529 1530 1530 1531 1531 1531 1531 1532 1532 1533 1533 1534 1535 1536 1537 1538 1538 1539 1540 1541 1542 1543 1543 1544 1545 1546 1546 1547 1547
1504 1505 1506 1506 1507 1509 1511 1514 1514 1515 1517 1518 1520 1521 1523 1524 1525 1526 1527 1528 1529 1529 1530 1530 1531 1531 1531 1532 1532 1533 1534 1535 1536 1537 1537 1538 1539 1540 1540 1541 1542 1543 1544 1545 1546 1547 1548 1548 1549
1503 1505 1510 1506 1505 1507 1514 1519 1513 1514 1516 1518 1519 1520 1522 1524 1525 1526 1527 1528 1528 1529 1529 1530 1531 1531 1531 1532 1533 1534 1534 1535 1536 1537 1538 1538 1539 1540 1541 1542 1543 1544 1545 1546 1547 1548 1549 1549 1550
1504 1508 1508 1505 1503 1505 1510 1515 1512 1513 1515 1516 1518 1519 1521 1523 1524 1525 1526 1527 1528 1529 1529 1529 1530 1530 1531 1532 1533 1533 1534 1535 1536 1537 1538 1539 1539 1540 1541 1542 1544 1545 1546 1547 1548 1549 1550 1551 1551
1506 1503 1503 1504 1502 1505 1509 1511 1510 1512 1513 1515 1516 1518 1520 1521 1523 1525 1526 1527 1527 1528 1528 1529 1529 1530 1531 1531 1532 1533 1534 1535 1536 1537 1538 1539 1540 1541 1541 1543 1544 1545 1546 1548 1549 1550 1551 1552 1552
1499 1501 1503 1501 1499 1504 1508 1508 1507 1509 1511 1513 1515 1517 1518 1521 1522 1524 1525 1526 1527 1528 1528 1528 1529 1529 1530 1531 1531 1532 1534 1535 1536 1537 1538 1539 1540 1541 1542 1543 1544 1545 1546 1548 1549 1550 1552 1553 1554
1500 1503 1503 1500 1498 1503 1506 1507 1504 1506 1509 1512 1513 1515 1517 1520 1521 1523 1524 1525 1526 1527 1528 1528 1528 1529 1529 1530 1531 1532 1533 1534 1536 1537 1537 1539 1540 1541 1542 1543 1544 1545 1547 1548 1549 1551 1552 1553 1555
1501 1502 1502 1503 1500 1500 1506 1510 1505 1504 1507 1510 1513 1514 1516 1519 1521 1522 1524 1525 1526 1526 1527 1528 1528 1528 1529 1530 1531 1532 1533 1534 1535 1536 1537 1538 1540 1541 1542 1543 1544 1545 1547 1548 1549 1551 1552 1553 1555
1504 1498 1499 1502 1507 1509 1505 1518 1506 1502 1505 1508 1511 1513 1515 1518 1520 1521 1523 1524 1525 1526 1527 1527 1528 1528 1528 1529 1530 1531 1532 1533 1534 1536 1537 1538 1539 1540 1542 1543 1544 1545 1546 1548 1549 1551 1552 1553 1554
1500 1498 1499 1501 1504 1508 1503 1511 1507 1500 1506 1506 1509 1512 1515 1517 1519 1520 1522 1523 1524 1525 1526 1527 1527 1528 1528 1529 1530 1531 1532 1532 1534 1535 1536 1537 1538 1540 1541 1542 1544 1545 1546 1547 1549 1550 1551 1553 1554
1498 1500 1500 1500 1505 1516 1501 1506 1509 1502 1501 1503 1507 1511 1514 1516 1518 1520 1521 1522 1523 1524 1525 1526 1526 1527 1528 1528 1529 1530 1531 1532 1533 1534 1535 1536 1537 1539 1540 1542 1543 1544 1545 1546 1548 1549 1550 1552 1553
1500 1507 1516 1517 1519 1513 1492 1500 1507 1498 1499 1502 1506 1510 1513 1515 1517 1519 1520 1521 1522 1523 1524 1525 1526 1526 1527 1527 1528 1529 1530 1531 1532 1533 1534 1535 1536 1538 1539 1540 1542 1543 1544 1546 1547 1548 1550 1551 1552
1500 1503 1518 1523 1516 1506 1495 1503 1503 1497 1500 1503 1506 1509 1512 1515 1517 1518 1519 1520 1521 1522 1523 1524 1525 1525 1526 1527 1527 1528 1529 1530 1531 1531 1533 1534 1535 1536 1537 1539 1540 1542 1543 1545 1546 1547 1548 1550 1551
1502 1501 1497 1506 1505 1509 1501 1499 1501 1497 1500 1503 1506 1509 1512 1515 1516 1518 1519 1520 1521 1522 1522 1523 1524 1524 1525 1526 1526 1527 1528 1529 1529 1530 1531 1532 1533 1535 1536 1537 1539 1540 1542 1543 1545 1546 1547 1548 1549
1500 1500 1503 1508 1516 1518 1507 1502 1505 1502 1502 1504 1507 1509 1512 1514 1516 1517 1518 1519 1520 1521 1522 1522 1523 1523 1524 1524 1525 1526 1526 1527 1528 1529 1530 1531 1532 1533 1534 1535 1537 1539 1540 1542 1543 1544 1546 1547 1548
1501 1502 1501 1504 1505 1515 1518 1513 1495 1499 1501 1504 1507 1509 1512 1514 1515 1516 1517 1518 1519 1520 1520 1521 1521 1522 1522 1523 1523 1524 1525 1525 1526 1527 1528 1529 1530 1531 1532 1534 1535 1536 1538 1540 1541 1543 1544 1546 1547
1498 1500 1503 1513 1510 1504 1511 1514 1494 1498 1501 1504 1506 1509 1511 1513 1514 1515 1516 1517 1518 1518 1519 1519 1520 1520 1520 1521 1522 1522 1523 1523 1524 1525 1526 1527 1528 1530 1531 1532 1533 1535 1536 1538 1539 1541 1542 1544 1545